Pinedale, WY

11:34 PM MST on January 22, 2018 (GMT -0700)
Wenz

Weather History for KPNA - September, 2013

Change the Weather History Date:

Monday, September 23, 2013

  Actual Average (KBPI) Record (KBPI)
Temperature  
Mean Temperature 45 °F -  
Max Temperature 57 °F 62 °F 81 °F (2015)
Min Temperature 33 °F 28 °F 13 °F (1996)
Degree Days  
Heating Degree Days 20    
Moisture  
Dew Point 30 °F    
Average Humidity 60    
Maximum Humidity 93    
Minimum Humidity 31    
Precipitation  
Precipitation 0.00 in - - ()
Sea Level Pressure  
Sea Level Pressure 30.05 in    
Wind  
Wind Speed 11 mph (WNW)    
Max Wind Speed 20 mph    
Max Gust Speed 26 mph    
Visibility 10 miles    
Events      
Averages and records for this station are not official NWS values.
T = Trace of Precipitation, MM = Missing Value Source: NWS Daily Summary

Daily Weather History Graph

Daily Weather History Graph

Search for Another Location

Airport or City:

Trip Planner

Search our weather history database for the weather conditions in past years. The results will help you decide how hot, cold, wet, or windy it might be!

Date:

Astronomy

Sep. 23, 2013 Rise Set
Actual Time 7:07 AM MDT 7:14 PM MDT
Civil Twilight 6:39 AM MDT 7:42 PM MDT
Nautical Twilight 6:06 AM MDT 8:15 PM MDT
Astronomical Twilight 5:32 AM MDT 8:48 PM MDT
Moon 9:42 PM MDT 11:36 AM MDT
Length of Visible Light 13h 02m
Length of Day
12h 06m
Waning Gibbous, 81% of the Moon is Illuminated
Sep 23
Waning Gibbous
Sep 26
Last Quarter
Oct 4
New
Oct 11
First Quarter
Oct 18
Full

Hourly Weather History & Observations

Time (MDT) Temp. Windchill Dew Point Humidity Pressure Visibility Wind Dir Wind Speed Gust Speed Precip Events Conditions
12:15 AM 44.6 °F 37.2 °F 35.6 °F 71% 29.88 in 10.0 mi WNW 17.3 mph 26.5 mph N/A   Scattered Clouds
12:35 AM 44.6 °F 37.8 °F 33.8 °F 66% 29.88 in 10.0 mi West 15.0 mph - N/A   Clear
12:55 AM 42.8 °F 36.2 °F 33.8 °F 70% 29.88 in 10.0 mi WNW 12.7 mph 19.6 mph N/A   Clear
1:15 AM 41.0 °F 35.2 °F 33.8 °F 76% 29.89 in 10.0 mi WNW 9.2 mph - N/A   Clear
1:35 AM 41.0 °F 35.8 °F 33.8 °F 76% 29.90 in 10.0 mi West 8.1 mph - N/A   Clear
1:55 AM 41.0 °F 35.2 °F 33.8 °F 76% 29.90 in 10.0 mi WNW 9.2 mph - N/A   Clear
2:15 AM 41.0 °F 35.2 °F 33.8 °F 76% 29.91 in 10.0 mi West 9.2 mph - N/A   Scattered Clouds
2:35 AM 41.0 °F 34.7 °F 33.8 °F 76% 29.92 in 10.0 mi WNW 10.4 mph - N/A   Clear
2:55 AM 39.2 °F 32.5 °F 33.8 °F 81% 29.92 in 10.0 mi WNW 10.4 mph - N/A   Clear
3:15 AM 37.4 °F 29.8 °F 33.8 °F 87% 29.92 in 10.0 mi WNW 11.5 mph - N/A   Clear
3:35 AM 37.4 °F 29.8 °F 32.0 °F 81% 29.92 in 10.0 mi WNW 11.5 mph - N/A   Clear
3:55 AM 37.4 °F 30.8 °F 32.0 °F 81% 29.93 in 10.0 mi West 9.2 mph - N/A   Clear
4:15 AM 35.6 °F 31.7 °F 32.0 °F 87% 29.93 in 10.0 mi NNW 4.6 mph - N/A   Clear
4:35 AM 35.6 °F 29.2 °F 32.0 °F 87% 29.95 in 10.0 mi NNW 8.1 mph - N/A   Scattered Clouds
4:55 AM 37.4 °F 29.8 °F 32.0 °F 81% 29.95 in 10.0 mi NW 11.5 mph - N/A   Scattered Clouds
5:15 AM 37.4 °F 32.1 °F 32.0 °F 81% 29.97 in 10.0 mi NW 6.9 mph - N/A   Mostly Cloudy
5:35 AM 37.4 °F 34.9 °F 32.0 °F 81% 29.97 in 10.0 mi WNW 3.5 mph - N/A   Overcast
5:55 AM 35.6 °F 29.9 °F 32.0 °F 87% 29.97 in 10.0 mi WNW 6.9 mph - N/A   Scattered Clouds
6:15 AM 35.6 °F 29.2 °F 32.0 °F 87% 29.98 in 10.0 mi WNW 8.1 mph - N/A   Clear
6:35 AM 33.8 °F 29.6 °F 32.0 °F 93% 29.99 in 10.0 mi NW 4.6 mph - N/A   Clear
6:55 AM 33.8 °F 27.0 °F 32.0 °F 93% 30.00 in 10.0 mi West 8.1 mph - N/A   Clear
7:15 AM 33.8 °F 27.7 °F 32.0 °F 93% 30.00 in 10.0 mi West 6.9 mph - N/A   Clear
7:35 AM 33.8 °F 26.4 °F 32.0 °F 93% 30.01 in 10.0 mi West 9.2 mph - N/A   Clear
7:55 AM 37.4 °F 32.1 °F 32.0 °F 81% 30.03 in 10.0 mi NW 6.9 mph - N/A   Clear
8:15 AM 41.0 °F 35.2 °F 32.0 °F 70% 30.03 in 10.0 mi West 9.2 mph - N/A   Scattered Clouds
8:35 AM 42.8 °F 35.8 °F 32.0 °F 66% 30.03 in 10.0 mi West 13.8 mph - N/A   Mostly Cloudy
8:55 AM 44.6 °F 37.8 °F 32.0 °F 61% 30.05 in 10.0 mi WNW 15.0 mph 20.7 mph N/A   Mostly Cloudy
9:15 AM 44.6 °F 38.4 °F 32.0 °F 61% 30.06 in 10.0 mi WNW 12.7 mph - N/A   Mostly Cloudy
9:35 AM 44.6 °F 38.4 °F 32.0 °F 61% 30.07 in 10.0 mi WNW 12.7 mph - N/A   Mostly Cloudy
9:55 AM 46.4 °F 39.5 °F 32.0 °F 57% 30.08 in 10.0 mi NW 17.3 mph 20.7 mph N/A   Scattered Clouds
10:15 AM 46.4 °F 41.9 °F 32.0 °F 57% 30.08 in 10.0 mi WNW 9.2 mph 20.7 mph N/A   Scattered Clouds
10:35 AM 46.4 °F 40.4 °F 32.0 °F 57% 30.08 in 10.0 mi WNW 13.8 mph 17.3 mph N/A   Overcast
10:55 AM 48.2 °F - 32.0 °F 54% 30.09 in 10.0 mi NW 12.7 mph - N/A   Overcast
11:15 AM 48.2 °F - 32.0 °F 54% 30.09 in 10.0 mi NW 15.0 mph 23.0 mph N/A   Overcast
11:35 AM 50.0 °F - 32.0 °F 50% 30.09 in 10.0 mi NNW 16.1 mph 19.6 mph N/A   Mostly Cloudy
12:15 PM 50.0 °F - 32.0 °F 50% 30.09 in 10.0 mi NW 12.7 mph 21.9 mph N/A   Overcast
12:35 PM 50.0 °F - 30.2 °F 47% 30.09 in 10.0 mi NW 18.4 mph - N/A   Overcast
12:55 PM 51.8 °F - 28.4 °F 41% 30.09 in 10.0 mi NW 18.4 mph 23.0 mph N/A   Mostly Cloudy
1:15 PM 53.6 °F - 28.4 °F 38% 30.09 in 10.0 mi NW 19.6 mph 24.2 mph N/A   Scattered Clouds
1:35 PM 53.6 °F - 28.4 °F 38% 30.09 in 10.0 mi NW 13.8 mph 24.2 mph N/A   Scattered Clouds
1:55 PM 53.6 °F - 28.4 °F 38% 30.09 in 10.0 mi NW 15.0 mph 20.7 mph N/A   Scattered Clouds
2:15 PM 53.6 °F - 28.4 °F 38% 30.09 in 10.0 mi NW 12.7 mph 23.0 mph N/A   Scattered Clouds
2:35 PM 53.6 °F - 28.4 °F 38% 30.09 in 10.0 mi NW 12.7 mph 19.6 mph N/A   Scattered Clouds
2:55 PM 55.4 °F - 28.4 °F 36% 30.09 in 10.0 mi West 10.4 mph 19.6 mph N/A   Scattered Clouds
3:15 PM 55.4 °F - 28.4 °F 36% 30.09 in 10.0 mi WNW 10.4 mph 23.0 mph N/A   Scattered Clouds
3:35 PM 55.4 °F - 28.4 °F 36% 30.09 in 10.0 mi NNW 11.5 mph - N/A   Clear
3:55 PM 55.4 °F - 26.6 °F 33% 30.10 in 10.0 mi WNW 11.5 mph 20.7 mph N/A   Clear
4:15 PM 55.4 °F - 26.6 °F 33% 30.09 in 10.0 mi WNW 15.0 mph 20.7 mph N/A   Clear
4:35 PM 57.2 °F - 26.6 °F 31% 30.10 in 10.0 mi WNW 16.1 mph 23.0 mph N/A   Clear
4:55 PM 57.2 °F - 26.6 °F 31% 30.09 in 10.0 mi WNW 16.1 mph 20.7 mph N/A   Clear
5:15 PM 55.4 °F - 26.6 °F 33% 30.09 in 10.0 mi WNW 11.5 mph 20.7 mph N/A   Clear
5:35 PM 55.4 °F - 26.6 °F 33% 30.11 in 10.0 mi West 11.5 mph 16.1 mph N/A   Clear
5:55 PM 55.4 °F - 24.8 °F 31% 30.11 in 10.0 mi West 11.5 mph 17.3 mph N/A   Clear
6:15 PM 55.4 °F - 24.8 °F 31% 30.11 in 10.0 mi West 12.7 mph 21.9 mph N/A   Clear
6:35 PM 53.6 °F - 26.6 °F 35% 30.11 in 10.0 mi West 15.0 mph - N/A   Clear
6:55 PM 51.8 °F - 26.6 °F 38% 30.12 in 10.0 mi West 13.8 mph - N/A   Clear
7:15 PM 50.0 °F - 26.6 °F 40% 30.13 in 10.0 mi West 13.8 mph - N/A   Clear
7:35 PM 48.2 °F - 26.6 °F 43% 30.13 in 10.0 mi West 10.4 mph - N/A   Clear
7:55 PM 48.2 °F - 26.6 °F 43% 30.13 in 10.0 mi WNW 11.5 mph - N/A   Clear
8:15 PM 44.6 °F 40.2 °F 28.4 °F 53% 30.14 in 10.0 mi NNW 8.1 mph - N/A   Clear
8:35 PM 42.8 °F 38.6 °F 30.2 °F 61% 30.15 in 10.0 mi North 6.9 mph - N/A   Clear
8:55 PM 44.6 °F 40.7 °F 30.2 °F 57% 30.17 in 10.0 mi NNW 6.9 mph - N/A   Clear
9:15 PM 42.8 °F 38.0 °F 30.2 °F 61% 30.18 in 10.0 mi NNW 8.1 mph - N/A   Clear
9:35 PM 42.8 °F 38.6 °F 30.2 °F 61% 30.18 in 10.0 mi WNW 6.9 mph - N/A   Clear
9:55 PM 42.8 °F 37.5 °F 30.2 °F 61% 30.18 in 10.0 mi WNW 9.2 mph - N/A   Clear
10:15 PM 39.2 °F - 30.2 °F 70% 30.19 in 10.0 mi Calm Calm - N/A   Clear
10:35 PM 41.0 °F - 30.2 °F 65% 30.18 in 10.0 mi Calm Calm - N/A   Clear
10:55 PM 41.0 °F - 30.2 °F 65% 30.19 in 10.0 mi Calm Calm - N/A   Clear
11:15 PM 41.0 °F 39.0 °F 28.4 °F 61% 30.19 in 10.0 mi West 3.5 mph - N/A   Clear
11:35 PM 35.6 °F 32.8 °F 30.2 °F 81% 30.19 in 10.0 mi West 3.5 mph - N/A   Clear
11:55 PM 35.6 °F 32.8 °F 30.2 °F 81% 30.19 in 10.0 mi WNW 3.5 mph - N/A   Clear